sat.trackr.live / text

‹ back to catalog

YAOGAN-43 01E

NORAD 60462 · 2024-148E

PAYLOAD ACTIVE UNKNOWN

§ Identity

Operator
Country
PRC
Launch date
2024-08-16
Launch site
XICLF
Launch vehicle
Mass (kg)
RCS (m²)

External: N2YO · Heavens-Above · Gunter

§ Orbital elements

Epoch: 2026-09-22T16:32:24.587808Z

Period
94.54 min
Inclination
34.9923°
Eccentricity
0.0002192
Mean motion
15.23095514 rev/d
Perigee alt
495.0 km
Apogee alt
498.0 km
Semi-major
6,874.6 km
B*
2.8593e-4
RAAN
266.9449°
Arg perigee
17.5709°
Mean anomaly
342.5081°
Rev number
11,703

§ Raw data

YAOGAN-43 01E1 60462U 24148E   26265.68917347  .00006877  00000+0  28593-3 0  99902 60462  34.9923 266.9449 0002192  17.5709 342.5081 15.23095514117033

JSON: /api/v1/satellites/60462 · /tle

For live sub-satellite position, see the globe view (requires WebGL).

§ Visibility from observer

Set your observer location to see the next 7 days of passes ≥ 10°. The values pass through the URL so the page stays shareable.

No JS? Fill the form by hand. The geolocation button needs JavaScript.